GFSFLT1_500_rhum_231.txt.gz
RH
7 8 9 10 8 6 7 7 7 7 8 7 7 7 7 6 6 7 8 10 10 10 14 16 17 17 17 18 22 28 29 28
6 6 7 7 7 8 8 9 9 12 13 11 9 7 7 6 6 7 7 8 10 11 14 13 14 16 18 19 19 21 24 27
8 7 7 8 9 10 11 12 14 16 17 16 14 12 11 10 9 8 8 8 10 10 11 12 12 15 18 20 20 21 22 25
13 13 13 13 14 15 16 16 17 17 18 17 16 14 15 14 14 11 10 10 9 8 10 12 13 15 18 20 21 22 23 24
17 16 18 18 17 18 20 20 20 19 18 16 15 15 14 15 14 12 11 10 10 10 10 12 14 17 19 20 21 22 22 23
44 32 21 18 21 30 33 24 18 17 15 15 15 15 14 14 14 12 11 11 12 14 13 13 16 18 20 20 22 24 23 24
21 24 22 20 18 26 36 34 33 22 13 10 11 20 31 35 29 17 10 12 14 16 20 21 21 22 24 23 22 26 27 31
58 55 48 36 39 24 17 17 20 17 20 23 20 29 40 53 44 27 10 16 18 16 20 29 36 32 33 30 32 30 44 66
51 54 58 61 59 47 38 40 39 21 17 27 34 58 56 62 60 42 20 33 29 25 26 39 44 58 65 56 76 93 96 96
21 40 58 66 64 61 86 77 74 64 58 60 56 63 57 57 55 78 88 44 31 36 38 41 60 73 76 85 89 94 91 48
8 7 9 19 36 51 53 56 56 50 48 59 52 46 48 47 44 55 55 51 52 64 83 85 92 89 81 74 64 51 49 52
10 9 8 6 5 6 14 26 27 26 28 38 42 41 40 47 44 44 61 47 44 53 73 92 98 94 75 70 68 61 42 30
11 10 9 8 5 4 4 3 3 5 4 4 3 3 9 19 23 31 59 55 52 62 74 84 86 82 70 66 64 29 27 94
11 11 10 9 8 5 4 3 3 2 2 2 2 2 2 4 14 13 33 29 58 68 71 73 78 68 53 50 20 24 95 87
19 17 14 12 10 9 7 4 3 3 2 2 2 2 2 3 4 5 10 38 57 71 59 54 65 57 42 35 13 20 43 94
47 35 25 19 13 10 9 8 6 4 3 3 2 2 2 3 4 8 29 35 54 66 57 57 62 38 40 24 14 19 16 5
66 54 48 39 32 20 14 10 8 7 6 5 3 3 3 7 4 13 36 41 63 62 58 55 43 41 47 29 20 9 6 7
67 66 60 45 45 38 26 22 18 12 8 7 6 4 6 13 18 30 48 68 72 69 66 50 44 42 42 45 26 24 22 27
55 74 70 65 60 43 35 38 30 24 19 12 8 17 52 65 49 53 75 71 70 86 70 57 42 41 60 60 46 33 36 38

GFSFLT1_500_rhum_234.txt.gz
RH
5 6 8 8 8 8 9 10 10 10 13 12 11 8 7 6 6 6 7 7 8 8 10 10 10 12 13 14 17 18 20 30
5 5 7 7 7 8 9 10 11 8 9 10 11 12 9 7 6 6 6 6 6 7 8 9 9 10 12 12 15 19 20 21
6 6 6 6 8 8 8 8 8 8 11 13 14 15 12 10 8 8 8 8 8 8 8 8 9 9 12 13 13 18 21 22
7 7 7 7 6 7 8 8 10 11 14 15 16 16 16 15 13 12 13 13 12 11 10 9 9 9 11 13 13 16 20 23
10 10 10 10 10 10 11 12 12 14 16 16 17 18 18 17 16 15 15 15 15 15 14 12 11 11 11 14 15 18 21 23
28 30 30 22 16 15 13 13 14 15 17 19 20 20 19 16 16 17 16 15 15 14 14 12 12 12 13 15 16 17 19 21
38 25 27 24 29 33 21 19 19 18 21 28 27 22 16 14 11 13 17 17 17 16 14 14 11 13 14 18 21 20 22 25
64 51 35 16 17 22 31 46 39 31 33 34 39 38 27 27 23 17 37 41 39 39 28 17 11 15 19 21 19 24 31 35
44 51 69 46 16 18 16 16 26 31 30 29 26 23 23 19 21 23 37 57 55 40 32 22 17 24 37 52 47 44 68 79
52 52 50 47 49 52 52 24 28 38 50 43 34 32 24 12 28 39 54 69 79 67 60 37 59 63 59 52 52 75 92 85
29 43 50 53 53 54 53 58 66 69 75 69 62 42 42 20 20 36 58 90 95 90 87 79 64 51 60 80 96 96 98 93
11 12 11 14 25 42 53 54 55 58 65 68 66 69 71 71 64 53 55 70 75 80 81 70 64 63 74 81 79 84 93 85
12 12 13 11 10 9 9 18 30 44 53 58 57 55 66 58 50 48 42 50 52 52 54 60 68 73 77 88 87 90 88 77
19 13 12 13 13 12 10 9 8 7 8 9 12 16 36 47 50 50 54 54 56 54 48 42 50 73 87 86 94 91 79 70
41 36 19 15 12 12 12 11 9 8 7 5 4 4 4 4 9 14 9 10 10 8 12 22 50 69 87 95 96 94 74 68
89 78 43 31 22 14 12 11 11 10 9 7 5 4 4 3 2 2 2 2 2 3 16 34 34 54 91 99 97 96 80 60
100 100 89 65 41 29 19 15 13 12 11 10 9 6 5 4 3 3 2 3 3 6 28 28 37 58 90 96 98 88 80 56
100 100 100 100 95 52 36 32 27 20 14 12 10 9 7 6 4 4 4 4 17 19 33 36 44 60 95 100 94 89 65 55
82 86 90 89 90 100 70 52 51 44 36 25 18 14 12 9 8 7 7 18 22 26 58 45 58 82 100 100 94 76 64 50

GFSFLT1_500_rhum_240.txt.gz
RH
5 5 5 5 8 7 5 17 16 22 6 6 10 10 9 9 8 6 5 5 5 5 5 5 5 5 6 6 6 7 7 7
5 5 5 5 5 7 5 7 22 24 10 6 8 12 11 10 9 9 6 6 6 6 5 5 5 6 6 7 7 8 8 8
25 5 5 5 5 6 10 5 29 22 11 6 7 12 13 13 9 8 7 8 8 7 8 8 8 8 8 10 10 10 9 9
58 29 6 5 5 6 32 17 8 12 8 7 7 10 12 11 10 10 11 14 12 10 11 12 12 13 14 15 14 14 14 14
36 49 36 19 5 6 17 27 24 22 8 9 8 12 12 13 13 13 14 16 17 17 16 16 16 15 17 17 16 16 16 16
16 12 17 24 47 35 13 11 32 24 28 36 28 11 14 13 11 12 14 18 20 19 20 18 17 18 18 17 17 15 15 21
14 14 9 8 10 14 10 10 40 62 50 88 55 20 17 15 11 13 13 16 20 22 22 19 19 18 18 15 17 15 24 33
20 13 14 14 9 8 16 20 20 11 7 8 18 23 19 12 11 12 13 14 15 20 24 20 21 21 24 34 31 23 37 45
55 23 14 17 15 13 12 16 31 31 14 15 9 9 13 15 15 14 14 15 17 20 21 22 26 29 24 20 26 35 49 56
85 60 37 40 33 51 38 14 12 13 19 12 11 17 38 42 21 18 17 22 24 32 39 49 37 37 26 27 30 40 58 62
68 58 51 62 72 66 57 48 17 15 14 13 13 14 18 29 40 19 17 16 36 55 54 39 15 41 25 21 36 54 60 69
33 41 45 47 58 90 93 94 75 39 18 17 16 19 34 37 22 30 29 42 34 41 60 64 74 71 32 23 40 46 67 69
49 44 34 28 26 42 55 73 94 87 83 58 34 30 62 70 74 86 43 19 20 19 37 70 91 82 47 27 40 61 70 73
87 62 44 32 27 24 25 30 42 70 87 76 74 71 65 47 50 62 63 39 39 40 47 57 70 63 49 62 62 55 67 72
99 78 72 67 48 34 26 21 19 23 28 42 56 65 61 58 56 52 48 50 45 49 56 56 59 59 61 63 70 66 62 67
80 77 67 70 71 64 44 32 24 17 14 14 16 18 22 33 45 53 52 51 52 50 54 51 55 64 61 65 66 61 59 65
92 88 94 84 71 64 57 47 37 27 17 13 12 12 12 12 12 11 11 13 16 18 20 19 21 33 37 31 39 40 40 45
100 100 100 98 83 71 57 52 52 51 41 23 15 12 12 12 12 12 12 11 10 9 9 8 7 6 5 5 7 9 12 15
89 98 100 100 92 97 68 58 54 51 52 51 48 36 19 14 13 12 12 13 13 12 11 10 10 8 6 5 4 3 5 7

GFSFLT1_500_rhum_246.txt.gz
RH
8 6 6 7 8 11 13 19 58 85 74 46 22 14 10 11 24 16 12 11 9 10 9 7 6 6 5 5 5 5 5 6
9 7 6 5 5 6 6 13 49 52 27 22 17 15 13 11 16 42 19 11 13 11 10 9 8 6 6 6 6 6 6 8
53 49 23 6 5 5 5 6 8 19 34 32 30 38 20 24 15 29 36 15 20 19 12 8 7 7 8 9 10 11 12 13
74 74 54 53 22 8 5 5 5 6 20 51 54 55 31 19 8 9 31 37 30 34 27 17 11 10 11 11 12 14 16 17
30 65 67 72 88 56 19 6 5 5 5 10 32 38 41 31 36 30 26 47 54 64 45 34 24 19 17 17 15 16 15 16
12 14 30 48 54 71 74 24 8 8 7 5 6 12 16 33 22 16 14 20 31 75 75 52 37 29 25 21 21 24 21 22
22 24 16 17 17 36 71 42 37 28 22 10 8 8 13 28 19 20 24 27 26 29 85 77 43 33 29 28 25 23 30 26
79 70 44 30 16 21 40 58 59 53 43 40 32 43 17 17 19 25 34 30 28 21 74 91 44 40 41 32 24 24 30 28
81 96 73 53 36 17 16 22 38 64 68 66 70 68 52 53 52 38 39 42 43 88 82 86 63 45 48 38 26 25 26 27
81 98 83 82 52 32 19 16 19 24 41 60 82 94 97 92 86 65 74 88 84 82 70 83 67 94 59 40 25 19 19 21
84 100 100 91 77 47 34 23 23 27 31 32 27 47 65 31 16 55 37 75 92 87 95 96 91 90 91 64 32 32 32 31
81 93 100 96 97 91 64 40 37 38 33 29 19 15 15 14 13 12 12 12 22 48 76 79 83 57 53 65 56 56 42 20
96 96 83 93 100 100 100 94 85 66 43 36 28 20 17 15 14 15 15 15 13 18 22 28 62 81 64 53 66 91 80 79
99 94 96 98 97 98 100 98 98 98 92 76 61 55 67 56 49 40 38 36 41 53 37 48 35 22 28 46 47 80 94 93
85 67 65 79 75 57 71 94 96 97 97 97 95 92 95 84 73 78 72 81 72 82 88 65 59 64 62 72 68 80 92 96
67 62 62 68 56 59 68 70 82 85 79 86 99 98 97 65 75 55 48 55 66 69 82 80 84 75 94 94 85 86 94 93
100 99 92 75 84 93 100 100 100 100 100 100 100 89 72 71 38 32 36 45 53 58 65 75 87 84 79 79 89 94 90 94
99 100 100 100 100 100 99 99 98 98 99 96 81 76 67 59 34 32 35 32 25 25 24 28 35 50 60 73 84 79 73 75
100 98 92 100 99 98 99 99 99 99 100 100 99 93 87 60 40 31 31 32 31 30 26 22 20 18 20 22 25 28 24 30

GFSFLT1_500_rhum_252.txt.gz
RH
32 46 36 26 29 22 16 19 17 14 21 32 28 31 34 27 26 30 38 40 18 9 8 9 9 11 10 8 7 7 6 6
12 31 37 36 32 22 20 25 30 24 21 22 20 15 20 23 31 39 52 64 45 12 9 10 9 11 10 10 8 6 6 5
15 17 23 30 31 35 27 27 26 21 17 16 17 21 27 43 36 42 40 34 26 55 52 20 13 10 11 11 9 8 7 6
29 30 34 32 31 31 30 34 32 24 20 26 34 27 20 21 17 20 35 60 57 66 59 44 29 21 14 10 13 11 9 8
40 26 30 23 24 28 29 29 19 11 11 13 12 16 32 66 85 98 94 92 72 80 92 95 73 59 40 27 16 15 14 13
65 43 39 37 41 34 26 17 14 10 11 10 10 13 19 32 46 81 86 83 90 86 83 100 93 86 97 91 50 38 43 38
66 72 72 71 62 61 53 31 13 11 17 25 23 12 14 13 8 8 21 36 70 96 94 98 100 97 94 100 98 96 93 76
71 47 53 76 93 83 75 66 36 27 25 37 47 28 14 12 12 9 8 8 31 79 100 97 96 99 96 91 91 100 99 81
78 79 50 45 75 92 90 86 77 72 55 55 58 69 67 68 56 52 35 9 23 36 61 85 85 75 80 62 68 82 68 73
90 80 52 62 62 67 77 90 86 77 71 55 46 53 70 76 90 75 69 40 34 40 38 38 47 53 65 46 44 53 99 81
39 87 94 48 40 46 26 28 34 51 60 56 28 19 22 46 69 72 71 66 47 51 57 76 47 86 98 80 59 99 95 95
48 38 69 96 81 62 57 51 48 48 41 32 20 17 17 26 41 52 60 78 87 98 84 97 96 82 95 90 96 95 97 93
45 47 45 51 68 96 82 72 68 60 64 56 53 47 41 26 30 41 57 61 67 94 94 97 95 94 93 85 96 91 97 95
98 86 58 47 50 65 56 80 94 85 76 78 70 59 63 57 47 44 43 59 85 93 97 96 95 94 92 72 82 92 91 90
100 100 100 95 73 60 80 93 94 88 88 78 74 94 91 80 66 55 49 52 72 88 92 94 95 88 68 56 64 67 60 47
88 99 98 98 99 99 99 97 97 84 80 81 80 76 92 94 86 79 79 75 60 61 68 61 58 37 24 19 28 33 28 30
92 100 81 100 99 95 100 100 99 96 98 96 96 92 88 84 80 75 79 80 81 74 64 54 39 34 45 56 60 50 45 44
100 100 100 100 100 100 99 97 99 99 100 99 99 98 88 93 100 96 92 84 75 74 76 80 83 79 74 75 74 76 88 79
99 99 100 100 100 100 90 95 94 96 94 98 98 97 99 98 97 97 99 82 83 89 78 78 80 86 86 69 65 68 76 74

GFSFLT1_500_rhum_255.txt.gz
RH
10 12 29 33 44 42 42 32 36 28 24 19 23 40 43 30 28 25 24 28 29 17 12 9 7 7 7 8 8 8 7 6
15 37 28 39 39 56 57 36 29 23 20 20 19 21 44 35 34 38 40 47 46 26 15 12 11 10 8 8 9 9 8 7
36 28 72 55 36 36 42 52 33 25 22 21 27 33 32 51 42 60 54 33 21 35 56 40 21 16 11 10 10 10 11 9
61 38 45 81 80 45 36 46 39 32 32 32 36 29 18 19 22 19 22 32 46 49 70 93 64 43 30 21 14 15 17 13
62 59 47 45 56 66 56 47 51 43 42 40 41 42 25 22 35 63 62 63 63 69 83 97 97 95 98 95 57 21 27 26
60 59 56 49 45 55 55 51 51 42 33 32 35 32 36 44 46 55 70 81 74 73 77 94 100 100 97 99 98 98 70 54
77 70 57 54 48 42 56 46 46 44 34 33 34 34 16 21 39 74 100 97 88 89 100 97 98 98 96 86 98 97 99 86
65 77 68 51 52 52 42 50 37 34 29 31 33 31 24 18 22 35 50 61 69 94 85 90 88 98 100 97 83 97 99 92
46 76 81 52 44 48 47 40 37 31 38 33 27 37 28 37 33 35 34 24 25 24 16 34 80 88 97 95 86 79 95 94
14 58 84 64 53 33 46 44 52 54 55 50 47 40 31 39 54 64 62 34 11 9 10 21 35 63 69 77 90 80 96 99
4 25 62 94 66 57 39 45 67 78 83 93 90 61 35 41 58 59 69 64 62 60 60 57 57 48 47 46 54 53 82 88
19 8 31 58 96 87 92 77 33 55 76 69 74 80 74 69 86 75 69 65 71 71 72 82 83 71 79 85 93 96 93 96
57 30 34 35 54 96 93 98 95 71 38 54 89 82 67 62 58 49 48 52 49 47 60 81 74 90 94 88 94 95 96 97
96 95 92 56 47 43 56 96 97 98 85 67 58 58 46 43 40 38 46 69 55 34 42 51 70 74 82 93 92 88 96 95
77 99 100 77 64 51 56 47 71 96 95 87 81 79 80 62 60 48 42 35 33 52 48 42 40 53 69 66 55 78 96 97
100 100 100 100 99 99 65 83 86 81 95 95 100 100 98 97 96 96 90 83 73 63 66 64 56 51 54 65 70 65 74 81
100 92 80 97 100 100 100 100 91 90 100 91 90 92 98 98 98 98 96 97 94 93 92 83 78 69 58 60 66 63 64 62
98 100 94 77 83 95 100 100 99 99 100 100 100 100 100 94 90 95 95 98 95 94 92 88 89 92 89 81 77 84 88 88
71 89 100 85 88 100 89 100 100 100 100 100 100 100 100 98 99 98 98 97 93 97 99 100 95 96 93 87 88 98 95 90

GFSFLT1_500_rhum_261.txt.gz
RH
74 39 43 28 26 41 38 32 29 28 32 30 29 28 56 37 21 16 15 18 22 18 18 19 14 12 10 8 6 6 7 8
66 83 38 45 26 27 37 36 39 33 27 32 32 26 28 25 23 26 24 33 32 24 25 22 20 18 17 14 10 8 7 6
47 72 80 47 42 22 37 40 49 47 32 33 40 32 26 25 30 32 34 43 56 46 30 19 25 28 25 20 19 17 14 10
32 53 67 83 48 27 25 50 57 55 50 40 44 40 38 36 34 38 38 38 48 52 63 52 28 40 40 34 31 31 30 17
4 39 53 62 86 56 28 41 73 62 57 43 45 44 42 41 39 44 47 47 59 72 82 79 56 52 50 50 51 44 51 67
2 8 44 52 58 86 69 28 43 62 60 52 52 51 48 46 42 50 57 62 79 90 86 80 67 64 63 80 69 75 64 67
1 3 13 45 50 58 75 84 25 52 59 61 59 61 60 53 46 83 94 100 95 98 96 93 90 83 80 86 92 88 96 88
1 1 1 16 48 55 64 76 85 29 35 56 64 68 68 61 85 85 83 83 62 53 97 94 89 91 94 93 94 96 96 94
2 1 1 2 19 46 58 65 66 93 54 43 56 72 80 80 95 95 98 95 86 73 71 85 95 90 92 82 86 78 80 86
26 3 1 1 2 22 46 62 59 67 97 96 99 95 78 79 82 96 92 76 87 87 94 96 94 88 90 87 93 90 98 100
55 19 4 1 1 2 20 56 60 43 95 96 95 97 91 89 84 82 87 86 79 81 75 68 64 65 71 85 97 99 97 96
99 100 39 10 2 2 4 19 62 50 53 90 95 95 89 91 96 87 74 63 64 72 68 60 47 32 30 29 69 76 68 64
100 99 100 89 10 5 2 3 15 65 72 58 87 84 98 97 99 76 71 64 59 56 62 69 63 54 46 35 48 64 65 71
86 100 100 100 94 48 56 5 2 6 34 82 94 90 94 89 89 96 96 89 72 63 66 68 74 76 70 61 54 58 64 67
44 60 89 100 100 100 87 97 35 5 7 11 37 71 95 94 95 96 94 98 98 95 94 92 79 91 92 87 83 75 68 71
28 30 31 66 96 100 100 100 75 69 40 25 25 44 66 96 95 95 94 94 95 96 96 96 94 98 99 84 80 82 86 80
5 13 19 24 27 67 98 100 100 100 93 69 57 55 94 100 94 87 94 96 87 92 97 97 96 93 89 88 94 97 97 95
3 3 2 3 8 20 37 68 87 98 98 100 100 100 100 100 100 99 98 93 92 96 92 87 89 93 84 83 97 97 96 89
6 4 3 2 2 3 12 22 27 44 86 98 98 100 100 100 100 100 100 100 100 94 82 79 88 96 92 75 75 75 74 67